Simultaneous Nadir Overpasses (SNOs) Predictions

Prediction of SNOs between METOP-A and TERRA Satellite Orbit:

Table of predicted SNOs for the next 14.0 days since TLE Epoch: 10/3/2015
Index Date (METOP-A) Time (METOP-A) Lat,Lon (METOP-A) SZA (METOP-A ) Date (TERRA) Time (TERRA) Lat,Lon (TERRA) SZA (TERRA ) Distance(km) Time Diff (sec)
1 10/04/2015 11:42:53 81.36, 52.50 88.85 10/04/2015 11:43:47 81.36, 52.37 88.86 2.16 54
2 10/04/2015 12:33:33 -81.36,-139.96 91.12 10/04/2015 12:33:14 -81.35,-140.11 91.15 2.68 19
3 10/07/2015 07:17:12 81.36, 118.97 89.95 10/07/2015 07:18:03 81.37, 118.91 89.97 1.01 51
4 10/07/2015 08:07:52 -81.36, -73.48 90.01 10/07/2015 08:07:30 -81.36, -73.55 90.03 1.32 22
5 10/10/2015 02:51:32 81.36,-174.61 91.04 10/10/2015 02:52:19 81.37,-174.62 91.07 0.63 47
6 10/10/2015 03:42:12 -81.37, -7.03 88.92 10/10/2015 03:41:46 -81.36, -7.06 88.94 0.58 26
7 10/12/2015 22:25:52 81.36,-108.21 92.11 10/12/2015 22:26:34 81.37,-108.21 92.14 0.44 42
8 10/12/2015 23:16:32 -81.37, 59.39 87.84 10/12/2015 23:16:01 -81.36, 59.36 87.86 0.44 31
9 10/15/2015 18:00:11 81.36, -41.86 93.17 10/15/2015 18:00:47 81.36, -41.87 93.18 0.23 36




NCC Satellite Simultaneous Nadir Overpasses (SNOs) Prediction Service
